Location: Mountain_View
(35.6670°N, 81.4000°W)
Time: 21:22:06
(UTC-04:00)

Amateur Radio Satellites - All Passes

Search period start: 05 May 2015 20:52
Search period end: 06 May 2015 20:52
Location: Mountain_View, 35.6670°N, 81.4000°W

Satellite Date Start Highest point End Downlink Frequencies (MHz)
Time Altitude Azimuth
CANX-2 05 May 20:55:46 20:59:45 39° 74° (ENE) 21:03:47 2200.000
JUGNU 05 May 20:56:24 20:58:51 13° 169° (S) 21:01:24 437.505
CUTE 1.7 + AOD 2 05 May 21:03:04 21:07:06 42° 74° (ENE) 21:11:12 437.475
CINEMA 3 05 May 21:12:39 21:16:21 26° 70° (ENE) 21:20:18 145.822/145.860
O/OREOS (USA 219) 05 May 21:17:23 21:21:50 50° 293° (WNW) 21:26:16 437.305
Oscar 11 05 May 21:18:03 21:20:43 17° 69° (ENE) 21:23:33 145.826/435.025
AUBIESAT-1 05 May 21:18:19 21:20:42 16° 297° (WNW) 21:22:52 437.475
COMPASS 1 05 May 21:20:08 21:24:09 44° 74° (ENE) 21:28:12 437.405
HO-68 05 May 21:30:18 21:37:30 82° 255° (WSW) 21:44:45 435.675
CUBEBUG 2 05 May 21:33:02 21:36:27 22° 69° (ENE) 21:40:04 437.445
UWE-3 05 May 21:35:34 21:38:38 19° 69° (ENE) 21:41:55 435.000/436.395/437.385
STRAND 1 05 May 21:39:18 21:43:03 20° 293° (WNW) 21:46:38 437.568
BRITE-PL 05 May 21:42:39 21:46:18 27° 266° (W) 21:50:05 437.365/2234.400
ZACube-1 05 May 21:44:51 21:47:53 19° 69° (ENE) 21:51:06 437.345
DELFI C3 05 May 21:50:29 21:53:52 26° 72° (ENE) 21:57:20 145.870
DOVE 4 05 May 21:51:01 21:55:21 57° 260° (W) 22:00:01 437.250
AAUSAT CUBESAT 2 05 May 21:52:52 21:57:05 85° 257° (WSW) 22:01:20 437.432
Cosmos 2491 05 May 21:55:50 22:04:00 48° 90° (E) 22:12:21 435.465 / 435.565
RS-15 05 May 21:57:48 22:09:00 53° 51° (NE) 22:20:45 29.354- 29.394
SEEDS 05 May 22:03:38 22:07:42 42° 262° (W) 22:11:46 437.485
YUBILEINY 05 May 22:05:44 22:14:30 87° 264° (W) 22:23:11 435.215
GOMX 1 05 May 22:10:29 22:13:56 22° 268° (W) 22:17:28 467.674
DX 1 05 May 22:10:34 22:13:40 20° 69° (ENE) 22:16:55 434.975-435.025
VELOX 1 05 May 22:27:30 22:29:44 14° 67° (ENE) 22:32:10 145.980
CANX-2 05 May 22:33:18 22:35:53 15° 269° (W) 22:38:17 2200.000
UKube-1 05 May 22:36:23 22:40:18 37° 73° (ENE) 22:44:19 .
CUTE 1.7 + AOD 2 05 May 22:41:00 22:43:17 14° 269° (W) 22:45:22 437.475
JUGNU 05 May 22:43:26 22:47:09 17° 179° (S) 22:50:53 437.505
UNISAT 6 05 May 22:48:15 22:49:23 11° 89° (E) 22:50:49 437.425
AISAT 05 May 22:48:29 22:52:02 25° 71° (ENE) 22:55:43 437.250
FUNcube-1 05 May 22:49:14 22:53:41 83° 258° (WSW) 22:58:14 145.935
CINEMA 3 05 May 22:49:39 22:53:29 26° 266° (W) 22:57:25 145.822/145.860
Oscar 11 05 May 22:52:34 22:56:38 37° 262° (W) 23:00:42 145.826/435.025
COMPASS 1 05 May 22:58:05 23:00:07 13° 270° (W) 23:01:55 437.405
AIST 1 05 May 22:58:35 22:59:19 11° 87° (E) 23:00:20
CUBEBUG 2 05 May 23:08:58 23:12:59 31° 265° (W) 23:17:04 437.445
UWE-3 05 May 23:10:46 23:14:54 36° 263° (W) 23:19:08 435.000/436.395/437.385
SRMSAT 05 May 23:15:11 23:18:27 15° 172° (S) 23:21:45 437.500
Cosmos 2504 05 May 23:16:10 23:21:50 23° 68° (ENE) 23:27:32 435.465 / 435.565
HUMSAT D 05 May 23:18:06 23:22:23 81° 258° (WSW) 23:26:44 437.325/437.525
ZACube-1 05 May 23:19:53 23:24:00 35° 264° (W) 23:28:09 437.345
50 SAT 05 May 23:20:12 23:24:09 61° 76° (ENE) 23:28:10 437.505
HO-68 05 May 23:24:05 23:26:25 11° 273° (W) 23:28:04 435.675
QB50P2 05 May 23:24:24 23:26:11 13° 91° (E) 23:28:13 145.880/145.840
DELFI C3 05 May 23:25:59 23:29:01 19° 266° (W) 23:31:57 145.870
ANTELSAT 05 May 23:28:16 23:32:25 33° 96° (E) 23:36:31 437.575/2403.000
NANOSAT C BR1 05 May 23:33:36 23:36:11 16° 92° (E) 23:38:57 145.865
CUBEBUG 1 05 May 23:33:51 23:37:47 36° 73° (ENE) 23:41:46 437.445
BEESAT 3 05 May 23:38:48 23:41:48 21° 112° (ESE) 23:44:55 437.485
POPSAT HIP 1 05 May 23:41:43 23:44:53 20° 94° (E) 23:48:08 437.405
DX 1 05 May 23:45:56 23:49:45 30° 263° (W) 23:53:33 434.975-435.025
Cosmos 2491 05 May 23:53:24 00:01:09 33° 288° (WNW) 00:08:46 435.465 / 435.565
BEESAT 2 05 May 23:54:47 23:58:08 25° 113° (ESE) 00:01:37 435.950
VELOX 1 06 May 00:01:43 00:05:57 45° 261° (W) 00:10:11 145.980
DUCHIFAT 1 06 May 00:02:48 00:06:44 35° 97° (E) 00:10:41 145.980
YUBILEINY 06 May 00:05:58 00:10:14 14° 280° (W) 00:13:48 435.215
ESTCUBE 1 06 May 00:06:26 00:10:56 78° 258° (WSW) 00:15:26 437.505/2401.250
SPROUT 06 May 00:10:25 00:13:48 24° 71° (ENE) 00:17:18 437.525
RS-15 06 May 00:10:31 00:21:25 45° 250° (WSW) 00:32:26 29.354- 29.394
TIGRISAT 06 May 00:12:27 00:17:06 78° 283° (WNW) 00:21:37 435.000
UKube-1 06 May 00:13:53 00:16:38 16° 267° (W) 00:19:12 .
POLYITAN 1 06 May 00:16:00 00:20:14 53° 99° (E) 00:24:28 437.675
UNISAT 6 06 May 00:22:05 00:26:40 59° 285° (WNW) 00:31:06 437.425
AISAT 06 May 00:24:58 00:28:35 24° 265° (W) 00:32:10 437.250
QB50P1 06 May 00:27:43 00:32:02 74° 101° (ESE) 00:36:19 145.935-145.965
AIST 2 06 May 00:29:02 00:31:53 18° 111° (ESE) 00:34:53 435.215
TISAT 1 06 May 00:31:12 00:34:53 31° 72° (ENE) 00:38:39 437.305
JUGNU 06 May 00:32:18 00:35:27 14° 189° (S) 00:38:32 437.505
AIST 1 06 May 00:32:26 00:36:34 48° 280° (W) 00:40:43
BUGSAT 1 06 May 00:39:29 00:43:42 68° 101° (E) 00:47:57 437.445
QB50P2 06 May 00:58:15 01:02:23 46° 286° (WNW) 01:06:29 145.880/145.840
SRMSAT 06 May 01:03:11 01:06:54 17° 182° (S) 01:10:36 437.500
ANTELSAT 06 May 01:05:32 01:08:59 21° 291° (WNW) 01:12:16 437.575/2403.000
NANOSAT C BR1 06 May 01:08:14 01:12:12 36° 287° (WNW) 01:16:07 145.865
Cosmos 2504 06 May 01:08:27 01:15:52 56° 268° (W) 01:22:50 435.465 / 435.565
CUBEBUG 1 06 May 01:11:34 01:14:20 16° 268° (W) 01:16:53 437.445
ITUPSAT 1 06 May 01:15:13 01:18:03 16° 67° (ENE) 01:21:04 437.325
BEESAT 3 06 May 01:16:02 01:19:38 29° 306° (NW) 01:23:16 437.485
POPSAT HIP 1 06 May 01:17:02 01:20:48 29° 288° (WNW) 01:24:29 437.405
BEESAT 2 06 May 01:32:46 01:36:12 25° 308° (NW) 01:39:38 435.950
BEESAT 06 May 01:37:14 01:41:14 28° 70° (ENE) 01:45:19 436.000
CUSAT 1 06 May 01:38:31 01:38:36 10° 57° (ENE) 01:39:25 437.405
DUCHIFAT 1 06 May 01:39:25 01:42:19 17° 291° (WNW) 01:45:03 145.980
SWISSCUBE 06 May 01:41:27 01:45:42 34° 71° (ENE) 01:50:01 437.505
SPROUT 06 May 01:46:18 01:49:50 24° 265° (W) 01:53:18 437.525
DANDE 06 May 01:50:21 01:51:18 10° 57° (ENE) 01:53:04 436.750
POLYITAN 1 06 May 01:54:00 01:55:44 12° 293° (WNW) 01:57:15 437.675
AIST 2 06 May 02:06:17 02:10:14 36° 305° (NW) 02:14:12 435.215
TISAT 1 06 May 02:07:53 02:10:46 17° 267° (W) 02:13:32 437.305
Oscar 19 06 May 02:10:02 02:14:24 27° 95° (E) 02:18:49 437.125/150
GONETS M04 06 May 02:30:43 02:38:17 32° 71° (ENE) 02:46:01
ITUPSAT 1 06 May 02:51:00 02:55:36 47° 261° (W) 03:00:13 437.325
SRMSAT 06 May 02:53:04 02:55:21 12° 192° (SSW) 02:57:32 437.500
Gurwin Techsat 1B 06 May 03:08:16 03:12:39 27° 95° (E) 03:17:07 435.225
ITAMSAT 1 06 May 03:10:12 03:14:43 31° 96° (E) 03:19:19 435.822/435.867
BEESAT 06 May 03:15:03 03:19:03 26° 265° (W) 03:22:59 436.000
CUSAT 1 06 May 03:15:11 03:23:20 57° 77° (ENE) 03:31:05 437.405
KKS-1 06 May 03:15:40 03:20:00 55° 75° (ENE) 03:24:23 437.445
SWISSCUBE 06 May 03:20:00 03:23:39 21° 266° (W) 03:27:12 437.505
DANDE 06 May 03:28:14 03:36:31 57° 77° (ENE) 03:44:43 436.750
STARS 06 May 03:41:59 03:46:21 68° 76° (ENE) 03:50:45 437.465
Oscar 19 06 May 03:49:12 03:53:44 31° 290° (WNW) 03:58:11 437.125/150
HORYU 2 06 May 03:59:16 04:01:12 13° 91° (E) 04:03:23 437.375
GONETS M04 06 May 04:27:02 04:35:28 50° 270° (W) 04:43:45
AO-7 06 May 04:33:01 04:39:58 30° 96° (E) 04:47:07 29.400- 29.500
Gurwin Techsat 1B 06 May 04:47:55 04:52:40 33° 290° (WNW) 04:57:19 435.225
ITAMSAT 1 06 May 04:49:45 04:54:09 28° 291° (WNW) 04:58:27 435.822/435.867
Cosmos 2499 06 May 04:53:16 05:00:09 42° 76° (ENE) 05:06:48 435.465 / 435.565
KKS-1 06 May 04:55:34 04:57:03 11° 270° (W) 04:58:15 437.445
CUSAT 1 06 May 04:58:40 05:05:40 30° 273° (W) 05:12:06 437.405
MOZHAYETS 4 06 May 05:06:15 05:10:47 58° 75° (ENE) 05:15:20
DANDE 06 May 05:12:11 05:19:26 31° 272° (W) 05:26:18 436.750
JAS-2 06 May 05:15:08 05:20:45 63° 100° (E) 05:25:56 435.910
HORYU 2 06 May 05:33:53 05:38:12 48° 286° (WNW) 05:42:28 437.375
PCSat 06 May 05:49:32 05:54:21 35° 110° (ESE) 05:59:17 145.827
O/OREOS (USA 219) 06 May 05:52:16 05:54:58 16° 58° (ENE) 05:57:50 437.305
M-CUBED/EXP-1 PRIME 06 May 05:57:11 06:00:08 17° 64° (ENE) 06:03:11 437.505
AO-7 06 May 06:25:03 06:33:07 55° 292° (WNW) 06:41:08 29.400- 29.500
AUBIESAT-1 06 May 06:27:03 06:31:08 30° 67° (ENE) 06:35:11 437.475
MOZHAYETS 4 06 May 06:46:46 06:48:27 11° 271° (W) 06:49:49
Cosmos 2499 06 May 06:46:55 06:53:03 29° 273° (W) 06:58:47 435.465 / 435.565
JAS-2 06 May 07:02:09 07:05:15 15° 298° (WNW) 07:07:59 435.910
STRAND 1 06 May 07:12:18 07:17:07 45° 73° (ENE) 07:21:59 437.568
CUBESAT XI-V 06 May 07:15:38 07:20:14 75° 258° (WSW) 07:24:51 437.345
CUTE-I 06 May 07:25:58 07:31:08 51° 100° (E) 07:36:20 437.470
M-CUBED/EXP-1 PRIME 06 May 07:29:56 07:34:38 51° 256° (WSW) 07:39:13 437.505
O/OREOS (USA 219) 06 May 07:30:25 07:34:39 42° 254° (WSW) 07:38:50 437.305
PCSat 06 May 07:33:08 07:37:50 29° 306° (NW) 07:42:28 145.827
PRISM 06 May 07:34:37 07:38:45 77° 256° (WSW) 07:42:53 437.425
Cubesat XI-IV 06 May 07:39:08 07:44:28 69° 101° (ESE) 07:49:48 437.490
AUBIESAT-1 06 May 08:01:48 08:05:51 26° 260° (W) 08:09:44 437.475
Cosmos 2491 06 May 08:10:54 08:16:45 20° 65° (ENE) 08:23:03 435.465 / 435.565
BRITE-PL 06 May 08:12:48 08:14:49 12° 88° (E) 08:17:15 437.365/2234.400
ISS 06 May 08:15:34 08:18:47 83° 318° (NW) 08:22:03 145.825
GOMX 1 06 May 08:37:31 08:40:05 14° 89° (E) 08:42:59 467.674
STRAND 1 06 May 08:53:06 08:56:36 18° 268° (W) 08:59:53 437.568
SO-50 06 May 08:56:32 09:00:53 42° 114° (ESE) 09:05:24 436.795
HO-68 06 May 09:02:32 09:07:44 22° 92° (E) 09:13:12 435.675
CUTE-I 06 May 09:07:13 09:10:52 18° 294° (WNW) 09:14:20 437.470
YUBILEINY 06 May 09:09:05 09:15:02 22° 83° (E) 09:21:27 435.215
Cubesat XI-IV 06 May 09:21:21 09:24:03 14° 296° (WNW) 09:26:29 437.490
BEESAT 3 06 May 09:36:55 09:40:59 64° 59° (ENE) 09:44:58 437.485
AAUSAT CUBESAT 2 06 May 09:39:55 09:42:45 18° 93° (E) 09:45:41 437.432
BRITE-PL 06 May 09:48:21 09:53:53 77° 284° (WNW) 09:59:35 437.365/2234.400
SEEDS 06 May 09:50:59 09:54:53 37° 97° (E) 09:58:47 437.485
DOVE 4 06 May 09:52:32 09:57:43 52° 98° (E) 10:02:53 437.250
BEESAT 2 06 May 09:53:53 09:58:00 82° 60° (ENE) 10:02:02 435.950
ISS 06 May 09:54:10 09:55:36 12° 336° (NNW) 09:56:59 145.825
Cosmos 2491 06 May 10:05:53 10:14:44 78° 265° (W) 10:23:31 435.465 / 435.565
GOMX 1 06 May 10:13:17 10:18:41 67° 285° (WNW) 10:24:09 467.674
CANX-2 06 May 10:19:32 10:23:46 68° 284° (WNW) 10:27:58 2200.000
ANTELSAT 06 May 10:24:44 10:28:15 22° 69° (ENE) 10:31:56 437.575/2403.000
CUTE 1.7 + AOD 2 06 May 10:26:49 10:31:02 62° 284° (WNW) 10:35:11 437.475
AIST 2 06 May 10:30:25 10:34:36 59° 58° (ENE) 10:38:41 435.215
POPSAT HIP 1 06 May 10:33:56 10:35:01 11° 67° (ENE) 10:36:21 437.405
SO-50 06 May 10:38:02 10:41:39 21° 312° (NW) 10:45:16 436.795
FUNcube-1 06 May 10:41:25 10:45:03 24° 94° (E) 10:48:43 145.935
COMPASS 1 06 May 10:41:57 10:46:05 62° 284° (WNW) 10:50:10 437.405
Oscar 11 06 May 10:42:36 10:46:46 46° 99° (E) 10:50:55 145.826/435.025
AIST 1 06 May 10:42:45 10:46:25 28° 77° (ENE) 10:50:11
CINEMA 3 06 May 10:46:29 10:51:33 88° 286° (WNW) 10:56:30 145.822/145.860
HO-68 06 May 10:48:55 10:55:58 60° 289° (WNW) 11:02:57 435.675
DUCHIFAT 1 06 May 10:53:17 10:56:09 19° 69° (ENE) 10:59:10 145.980
YUBILEINY 06 May 11:02:23 11:11:10 69° 279° (W) 11:19:57 435.215
CUBEBUG 2 06 May 11:02:28 11:07:14 71° 101° (ESE) 11:11:51 437.445
UWE-3 06 May 11:03:21 11:07:57 58° 100° (E) 11:12:26 435.000/436.395/437.385
HUMSAT D 06 May 11:06:09 11:09:18 20° 93° (E) 11:12:32 437.325/437.525
POLYITAN 1 06 May 11:06:33 11:10:08 28° 72° (ENE) 11:13:49 437.675
DELFI C3 06 May 11:07:04 11:11:04 68° 101° (E) 11:15:03 145.870
TIGRISAT 06 May 11:07:48 11:12:21 64° 75° (ENE) 11:17:02 435.000
ZACube-1 06 May 11:11:13 11:15:42 55° 100° (E) 11:20:05 437.345
AAUSAT CUBESAT 2 06 May 11:14:48 11:18:26 29° 288° (WNW) 11:21:59 437.432
UNISAT 6 06 May 11:17:33 11:22:11 85° 75° (ENE) 11:26:54 437.425
QB50P1 06 May 11:17:44 11:21:35 36° 73° (ENE) 11:25:31 145.935-145.965
BUGSAT 1 06 May 11:27:09 11:30:39 30° 72° (ENE) 11:34:15 437.445
SEEDS 06 May 11:27:50 11:30:24 15° 291° (WNW) 11:32:48 437.485
VERMONT LUNAR 06 May 11:28:26 11:31:19 29° 149° (SSE) 11:34:15 437.305
DOVE 4 06 May 11:31:27 11:35:05 18° 292° (WNW) 11:38:31 437.250
DX 1 06 May 11:36:32 11:40:50 55° 100° (E) 11:45:09 434.975-435.025
QB50P2 06 May 11:47:51 11:52:05 89° 81° (E) 11:56:23 145.880/145.840
Cosmos 2504 06 May 11:50:28 11:56:53 24° 85° (E) 12:03:31 435.465 / 435.565
VELOX 1 06 May 11:55:03 11:59:15 40° 98° (E) 12:03:29 145.980
NANOSAT C BR1 06 May 11:57:22 12:01:34 72° 258° (WSW) 12:05:49 145.865
ANTELSAT 06 May 12:00:43 12:04:52 32° 264° (W) 12:09:02 437.575/2403.000
UKube-1 06 May 12:02:20 12:06:41 77° 284° (WNW) 12:11:01 .
ESTCUBE 1 06 May 12:02:33 12:06:19 27° 95° (E) 12:10:10 437.505/2401.250
POPSAT HIP 1 06 May 12:06:18 12:10:27 55° 260° (W) 12:14:38 437.405
Cosmos 2491 06 May 12:07:09 12:10:23 12° 281° (W) 12:12:48 435.465 / 435.565
AIST 2 06 May 12:12:11 12:12:43 10° 251° (WSW) 12:12:59 435.215
FUNcube-1 06 May 12:17:30 12:21:21 27° 289° (WNW) 12:25:03 145.935
AISAT 06 May 12:17:33 12:22:03 79° 103° (ESE) 12:26:32 437.250
RS-15 06 May 12:18:35 12:28:18 41° 109° (ESE) 12:38:21 29.354- 29.394
Oscar 11 06 May 12:20:22 12:22:35 14° 292° (WNW) 12:24:36 145.826/435.025
AIST 1 06 May 12:20:49 12:23:55 19° 271° (W) 12:26:54
PHONESAT 2.4 06 May 12:22:52 12:25:48 26° 147° (SSE) 12:28:48 2401.200-2431.200
DUCHIFAT 1 06 May 12:28:01 12:31:46 31° 263° (W) 12:35:32 145.980
50 SAT 06 May 12:34:46 12:38:40 53° 285° (WNW) 12:42:31 437.505
HUMSAT D 06 May 12:41:22 12:45:04 28° 288° (WNW) 12:48:41 437.325/437.525
UWE-3 06 May 12:41:51 12:44:00 13° 294° (WNW) 12:45:54 435.000/436.395/437.385
CUBEBUG 2 06 May 12:42:00 12:43:20 11° 295° (WNW) 12:44:22 437.445
POLYITAN 1 06 May 12:42:49 12:46:04 21° 266° (W) 12:49:14 437.675
TIGRISAT 06 May 12:48:37 12:49:38 10° 272° (W) 12:50:19 435.000
ZACube-1 06 May 12:49:30 12:51:36 13° 293° (WNW) 12:53:28 437.345
QB50P1 06 May 12:55:03 12:57:39 15° 268° (W) 13:00:05 145.935-145.965
CUBEBUG 1 06 May 13:01:18 13:05:42 71° 284° (WNW) 13:10:05 437.445
BUGSAT 1 06 May 13:03:33 13:06:14 17° 267° (W) 13:08:47 437.445
VERMONT LUNAR 06 May 13:05:20 13:08:36 57° 343° (NNW) 13:11:53 437.305
YUBILEINY 06 May 13:07:26 13:10:03 11° 301° (WNW) 13:11:51 435.215
DX 1 06 May 13:14:54 13:16:40 12° 294° (WNW) 13:18:12 434.975-435.025
Oscar 19 06 May 13:24:04 13:28:29 30° 70° (ENE) 13:33:01 437.125/150
VELOX 1 06 May 13:32:39 13:35:32 16° 292° (WNW) 13:38:14 145.980
SPROUT 06 May 13:34:54 13:39:15 72° 101° (E) 13:43:34 437.525
ESTCUBE 1 06 May 13:39:28 13:43:07 24° 290° (WNW) 13:46:39 437.505/2401.250
Cosmos 2504 06 May 13:40:58 13:49:47 65° 280° (W) 13:58:17 435.465 / 435.565
SWISSCUBE 06 May 13:47:28 13:48:13 10° 89° (E) 13:49:18 437.505
TISAT 1 06 May 13:53:39 13:57:56 89° 102° (ESE) 14:02:13 437.305
PHONESAT 2.4 06 May 14:00:19 14:03:50 67° 342° (NNW) 14:07:22 2401.200-2431.200
ITAMSAT 1 06 May 14:25:23 14:30:00 35° 71° (ENE) 14:34:42 435.822/435.867
Gurwin Techsat 1B 06 May 14:26:29 14:31:06 32° 70° (ENE) 14:35:49 435.225
RS-15 06 May 14:29:55 14:40:29 52° 309° (NW) 14:51:12 29.354- 29.394
PCSat 06 May 14:40:58 14:44:23 17° 48° (NE) 14:48:00 145.827
VERMONT LUNAR 06 May 14:43:16 14:46:19 33° 360° (N) 14:49:25 437.305
ISS 06 May 14:45:23 14:48:18 29° 35° (NE) 14:51:13 145.825
ITUPSAT 1 06 May 14:54:22 14:59:03 56° 100° (E) 15:03:43 437.325
Oscar 19 06 May 15:03:23 15:07:49 28° 265° (W) 15:12:12 437.125/150
KKS-1 06 May 15:11:25 15:13:34 14° 91° (E) 15:15:57 437.445
BEESAT 06 May 15:17:14 15:22:01 80° 282° (WNW) 15:26:45 436.000
SWISSCUBE 06 May 15:21:52 15:26:36 65° 285° (WNW) 15:31:18 437.505
JAS-2 06 May 15:23:14 15:29:06 26° 67° (ENE) 15:34:52 435.910
GONETS M04 06 May 15:27:50 15:35:43 40° 88° (E) 15:43:50
AO-7 06 May 15:29:09 15:36:08 33° 62° (ENE) 15:43:19 29.400- 29.500
STARS 06 May 15:36:01 15:38:39 16° 92° (E) 15:41:29 437.465
PHONESAT 2.4 06 May 15:39:03 15:42:21 36° 358° (N) 15:45:41 2401.200-2431.200
Cosmos 2504 06 May 15:43:20 15:45:08 10° 301° (WNW) 15:46:06 435.465 / 435.565
ITAMSAT 1 06 May 16:05:25 16:09:36 24° 266° (W) 16:13:39 435.822/435.867
Gurwin Techsat 1B 06 May 16:06:35 16:11:06 27° 265° (W) 16:15:32 435.225
CUSAT 1 06 May 16:19:36 16:24:01 58° 94° (E) 16:30:00 437.405
VERMONT LUNAR 06 May 16:20:44 16:24:03 58° 16° (NNE) 16:27:22 437.305
ISS 06 May 16:21:56 16:24:32 22° 229° (SW) 16:27:06 145.825
PCSat 06 May 16:22:59 16:28:22 66° 246° (WSW) 16:33:42 145.827
HORYU 2 06 May 16:28:48 16:33:17 77° 258° (WSW) 16:37:49 437.375
ITUPSAT 1 06 May 16:34:01 16:36:31 14° 294° (WNW) 16:38:47 437.325
DANDE 06 May 16:37:32 16:41:39 62° 95° (E) 16:47:19 436.750
KKS-1 06 May 16:46:12 16:50:32 46° 286° (WNW) 16:54:48 437.445
RS-15 06 May 16:49:51 16:56:34 17° 339° (NNW) 17:03:03 29.354- 29.394
MOZHAYETS 4 06 May 17:05:32 17:08:26 17° 92° (E) 17:11:28
JAS-2 06 May 17:06:04 17:13:46 61° 260° (W) 17:20:57 435.910
STARS 06 May 17:11:09 17:15:19 39° 288° (WNW) 17:19:26 437.465
PHONESAT 2.4 06 May 17:17:25 17:20:55 55° 15° (NNE) 17:24:26 2401.200-2431.200
AO-7 06 May 17:20:38 17:28:39 52° 259° (W) 17:36:40 29.400- 29.500
GONETS M04 06 May 17:24:27 17:32:36 40° 286° (WNW) 17:40:40
Cosmos 2499 06 May 17:24:43 17:32:41 42° 90° (E) 17:40:27 435.465 / 435.565
SO-50 06 May 17:31:12 17:34:54 21° 48° (NE) 17:38:41 436.795
VERMONT LUNAR 06 May 17:58:21 18:01:20 29° 211° (SSW) 18:04:18 437.305
CUSAT 1 06 May 18:04:48 18:07:47 15° 300° (WNW) 18:10:53 437.405
DANDE 06 May 18:24:05 18:26:07 12° 302° (WNW) 18:28:01 436.750
MOZHAYETS 4 06 May 18:41:36 18:45:51 38° 287° (WNW) 18:50:02
CUTE-I 06 May 18:44:56 18:50:09 63° 74° (ENE) 18:55:24 437.470
PHONESAT 2.4 06 May 18:55:45 18:59:04 36° 210° (SSW) 19:02:23 2401.200-2431.200
Cubesat XI-IV 06 May 18:58:16 19:03:34 85° 79° (E) 19:08:56 437.490
RS-15 06 May 19:09:53 19:15:36 15° 16° (NNE) 19:21:47 29.354- 29.394
SO-50 06 May 19:10:58 19:15:44 47° 245° (WSW) 19:20:22 436.795
CUBESAT XI-V 06 May 19:15:30 19:19:41 33° 97° (E) 19:23:55 437.345
M-CUBED/EXP-1 PRIME 06 May 19:16:53 19:18:23 12° 95° (E) 19:20:02 437.505
Cosmos 2499 06 May 19:17:47 19:25:53 39° 285° (WNW) 19:33:30 435.465 / 435.565
PRISM 06 May 19:20:57 19:23:40 18° 94° (E) 19:26:32 437.425
STRAND 1 06 May 19:26:37 19:30:10 19° 93° (E) 19:33:53 437.568
HO-68 06 May 19:31:08 19:33:52 13° 57° (ENE) 19:37:05 435.675
AUBIESAT-1 06 May 19:46:06 19:49:11 26° 100° (E) 19:52:09 437.475
O/OREOS (USA 219) 06 May 20:00:41 20:04:38 30° 104° (ESE) 20:08:39 437.305
CUTE-I 06 May 20:28:01 20:30:45 13° 270° (W) 20:33:09 437.470
SEEDS 06 May 20:40:58 20:43:57 19° 70° (ENE) 20:47:04 437.485
JUGNU 06 May 20:41:05 20:43:49 13° 170° (S) 20:46:39 437.505
